Location: Newark
(43.4306°N, 0.3089°E)
Time: 15:26:20
(UTC+00:00)

Vanguard 2 - Visible Passes

Search period start: 21 August 2019 00:00
Search period end: 31 August 2019 00:00
Orbit: 553 x 2938 km, 32.9° (Epoch: 20 August)

Date Brightness Start Highest point End Pass type
(mag) Time Alt. Az. Time Alt. Az. Time Alt. Az.
21 Aug 11.5 19:45:57 10° WSW 19:55:31 21° SW 20:06:38 10° S visible
22 Aug 11.7 20:06:03 10° WSW 20:13:13 15° SW 20:21:11 10° S visible
26 Aug 11.9 19:13:08 10° SW 19:14:20 10° SW 19:15:34 10° SSW visible
